Theta_e
307 308 308 308 308 308 308 308 306 304 301 300 303 306 309 311 308 308 311 313 314 310 309 311 312 311 311 313 312 312 313 313 314 314 314 314 315 314 311 313 313 312 312 310 308
306 305 306 307 307 306 306 304 302 301 299 300 304 307 310 312 309 310 309 309 309 309 311 313 314 313 314 314 314 313 312 314 314 315 315 315 314 314 314 314 314 313 311 309 308
305 304 304 305 305 304 302 301 299 299 299 300 305 308 311 312 310 310 309 309 308 310 310 312 312 313 315 314 314 313 313 314 314 315 314 315 314 313 314 316 313 311 310 309 308
304 303 304 304 305 304 303 301 299 299 300 302 306 310 311 311 315 310 310 309 308 310 310 312 314 315 315 315 313 315 314 313 314 313 314 314 313 314 313 312 309 308 308 308 308
304 303 304 305 305 305 303 300 299 299 301 303 306 311 311 310 311 309 309 309 309 310 312 313 314 313 315 314 314 315 314 314 313 313 313 312 313 313 313 309 308 307 308 308 308
307 303 304 305 306 306 304 301 299 300 302 303 308 311 312 311 309 309 310 310 309 312 312 313 313 312 314 314 315 314 314 314 313 313 313 313 313 313 312 308 308 308 308 308 308
308 305 303 306 306 306 305 302 299 300 302 305 309 311 310 311 309 309 310 311 311 310 313 312 312 314 314 316 313 312 315 313 313 313 314 311 314 315 309 308 309 308 308 308 307
308 307 305 306 307 306 305 303 299 300 303 305 309 309 310 308 308 309 309 310 312 311 312 312 312 313 314 311 311 313 313 315 313 313 313 312 315 312 308 309 309 308 307 307 307
308 307 307 306 305 306 304 302 300 301 304 306 309 309 311 308 308 308 309 310 310 312 313 311 309 312 312 314 314 313 314 313 313 312 313 314 315 312 308 308 309 308 308 307 306
308 307 307 307 306 305 304 300 303 304 307 308 308 310 307 309 307 309 309 310 311 311 312 312 309 313 313 313 325 318 315 312 313 312 313 314 316 313 309 308 309 308 307 307 306
308 308 307 307 306 304 304 302 304 305 305 308 307 308 308 307 308 309 309 310 310 311 313 312 314 318 314 313 312 313 314 314 312 311 312 314 315 314 309 308 308 307 307 306 306
309 308 307 307 304 305 302 303 301 300 302 303 305 306 306 307 310 309 308 311 311 313 310 313 314 310 312 312 313 313 314 314 311 309 312 314 316 313 309 309 308 307 306 305 305
310 308 308 306 305 305 300 302 302 302 301 303 304 306 307 307 309 310 309 309 311 311 311 311 312 309 309 310 311 313 316 314 313 311 311 313 316 313 310 308 308 307 306 304 303
311 309 308 306 305 301 299 302 302 302 315 309 307 307 307 308 310 307 308 310 310 311 310 310 308 308 308 308 310 309 309 310 312 313 318 312 330 310 310 309 308 307 306 304 302
312 309 308 306 301 300 300 301 302 305 330 308 306 304 306 307 309 309 306 308 311 310 307 310 309 309 309 308 308 308 308 311 311 314 315 315 318 321 306 311 310 308 305 302 301
312 309 308 305 303 301 298 301 303 319 324 309 305 307 308 308 309 308 309 308 308 309 308 309 307 307 308 307 307 308 310 309 312 315 319 311 314 324 315 313 310 307 304 301 300
313 310 308 305 305 301 300 301 312 322 310 312 307 307 307 309 309 309 310 310 311 313 311 309 310 308 307 309 308 309 309 318 318 317 318 309 312 320 310 308 309 307 304 300 300
313 310 307 306 303 300 301 305 312 313 313 305 306 306 307 309 309 309 310 311 309 308 312 314 314 309 308 308 308 310 309 310 315 313 311 307 314 315 307 306 306 306 302 299 299
311 306 306 303 301 300 303 308 314 310 309 307 306 308 311 308 308 309 309 309 309 308 311 310 309 307 306 307 307 310 310 306 309 306 313 310 309 308 307 307 306 306 301 300 299
307 304 303 300 300 300 304 311 307 303 305 306 316 310 313 309 308 310 310 308 308 307 306 308 312 307 307 307 307 308 307 312 311 314 313 308 307 310 309 309 307 305 303 300 299
306 305 302 300 299 301 305 306 305 300 305 308 312 309 308 308 310 309 310 307 307 307 307 307 308 307 307 309 310 309 310 308 308 309 309 310 311 308 309 309 309 307 304 300 299
304 304 301 299 302 300 303 303 300 300 302 304 305 306 308 307 309 309 309 307 307 307 309 307 307 311 309 304 304 306 309 308 309 309 310 310 310 304 307 307 308 308 304 300 299
303 299 300 301 307 302 300 300 298 301 303 304 306 305 303 307 310 308 306 304 306 308 308 307 310 312 308 305 304 308 308 308 306 307 310 312 312 304 304 305 306 307 303 299 299
299 300 296 298 301 307 304 305 303 298 302 304 305 303 304 305 304 306 305 305 304 306 305 305 306 311 318 309 306 308 308 308 309 312 309 309 308 305 306 306 306 304 301 299 299
298 300 300 302 301 302 304 302 305 301 298 303 303 304 306 306 304 306 305 305 305 306 304 305 310 304 304 303 306 307 307 308 310 309 308 311 308 309 307 307 307 305 301 299 298
298 299 298 301 302 303 303 305 306 303 299 303 304 304 305 307 308 306 306 306 308 306 305 303 310 303 305 301 302 304 305 307 308 309 309 308 309 308 306 306 306 303 299 298 299
296 299 302 304 302 303 305 307 305 304 300 301 303 303 304 306 306 303 303 304 305 308 307 305 304 305 311 296 297 306 301 304 306 306 308 309 309 306 306 304 304 304 301 299 299
Wind_Speed
6 8 9 9 10 10 11 12 12 13 12 10 8 6 4 4 8 6 7 8 10 14 11 5 2 3 3 4 4 1 2 2 3 3 3 2 4 3 3 4 2 5 7 12 23
6 7 8 9 10 10 11 11 11 11 11 9 6 5 4 1 3 10 7 9 9 10 5 5 2 4 3 3 3 1 1 3 2 2 1 3 2 4 4 4 2 5 12 17 19
6 7 7 8 9 11 11 11 11 12 11 7 6 6 4 1 2 2 8 10 9 11 3 4 2 2 3 3 4 3 2 5 3 2 1 1 1 2 5 0 6 14 17 18 18
7 8 7 8 9 10 11 11 12 12 10 7 7 7 2 1 1 2 8 10 8 7 2 3 2 2 3 2 3 4 4 2 3 1 1 2 3 1 6 4 8 10 13 15 15
9 8 8 8 10 11 12 12 12 12 9 7 7 6 1 1 2 4 6 9 6 4 6 2 3 3 4 4 3 5 5 4 3 2 3 2 2 1 2 7 8 10 11 13 14
11 10 9 9 11 12 13 13 12 11 8 6 6 3 1 1 1 5 5 7 8 7 7 4 3 5 7 3 2 3 5 5 2 2 1 5 2 3 1 9 10 10 11 12 14
11 11 11 10 13 15 14 13 12 10 7 5 5 3 1 4 2 4 4 7 10 5 4 4 3 1 5 6 3 5 5 2 1 1 2 2 4 3 5 8 11 12 12 13 15
10 12 9 10 13 15 16 15 13 9 4 3 3 1 2 2 1 3 3 4 7 7 8 5 7 8 3 7 3 2 2 3 3 2 2 2 1 3 5 9 11 13 13 14 17
13 12 10 11 12 15 17 17 12 3 3 1 0 1 2 2 1 2 3 2 3 4 5 4 2 4 3 4 3 1 3 3 1 1 2 2 4 4 3 7 10 12 13 12 14
12 12 11 12 14 16 18 14 2 1 1 1 2 2 1 2 2 2 2 2 2 2 1 1 2 3 3 3 2 4 3 2 4 2 2 6 9 2 3 5 7 8 9 12 14
13 10 10 11 13 14 16 1 1 2 1 2 2 2 3 2 2 1 1 1 1 1 3 2 3 4 5 1 2 4 2 1 2 0 5 4 9 7 4 4 5 6 8 10 12
15 11 8 8 10 9 10 2 2 1 3 0 1 1 1 2 2 1 0 3 2 3 2 3 4 5 7 5 3 2 1 2 4 3 3 7 13 9 7 4 5 7 9 10 11
19 13 9 6 6 6 3 4 3 2 2 0 1 2 1 3 1 4 2 2 2 4 4 3 5 8 4 5 4 3 2 2 3 6 2 10 5 5 5 8 8 9 8 7 10
22 17 13 7 3 1 2 3 4 3 2 3 2 1 2 2 2 0 1 0 2 5 4 2 4 5 4 3 4 3 4 3 1 6 4 4 4 4 6 8 8 8 7 8 10
26 23 17 12 4 2 2 4 4 2 4 4 2 1 2 3 4 2 1 1 3 5 3 3 8 6 4 1 4 2 3 1 1 2 5 2 2 1 2 6 8 6 5 6 8
31 26 22 15 6 5 5 4 2 4 7 3 2 4 4 2 2 2 2 3 1 2 2 2 0 2 1 3 1 6 3 2 1 2 3 2 2 3 5 5 3 4 4 5 7
36 32 27 18 8 13 7 2 4 4 2 4 3 4 3 4 4 4 5 5 5 5 6 2 3 1 1 3 2 3 3 1 2 2 2 3 3 7 5 7 5 4 4 5 5
40 35 30 20 18 18 8 5 5 3 5 3 4 4 4 6 3 5 4 5 7 3 3 6 4 7 5 2 2 5 2 2 4 2 2 2 6 2 2 3 5 4 5 4 5
40 29 25 21 26 24 5 3 9 7 6 12 5 4 4 4 3 5 7 5 7 14 6 5 2 2 1 1 1 4 4 2 2 1 3 3 5 8 5 7 8 8 7 6 3
28 19 13 30 28 21 2 5 5 3 6 3 8 8 9 7 8 8 9 4 5 9 1 5 3 1 3 2 3 4 5 2 1 3 4 4 5 6 8 14 12 11 10 7 3
17 5 20 35 24 5 4 7 6 5 4 6 6 6 4 7 7 6 4 3 4 7 3 5 1 3 2 8 8 4 3 2 2 3 2 3 4 4 9 11 15 14 10 7 5
7 5 30 41 5 3 5 7 7 5 2 2 3 3 8 9 8 7 9 4 9 11 8 5 3 5 4 1 1 1 4 8 4 4 2 2 7 5 6 5 10 12 11 9 5
5 3 25 30 8 6 2 5 4 6 7 8 9 4 4 5 2 9 6 2 9 9 9 8 3 2 1 2 3 6 7 5 3 1 7 4 4 3 4 6 9 12 12 10 8
3 4 3 3 2 12 9 7 7 5 4 5 4 5 5 4 5 4 5 2 2 4 2 5 3 4 3 3 4 5 11 15 11 4 4 10 4 6 10 11 11 12 12 13 11
3 4 4 11 13 5 14 15 12 9 4 6 5 6 10 6 7 7 2 2 1 2 2 2 4 3 4 3 3 4 7 15 19 17 10 4 11 12 14 16 16 15 13 13 13
2 3 3 2 17 17 15 17 22 12 11 7 8 19 12 11 10 9 8 4 5 5 5 3 2 1 4 2 5 6 15 14 20 20 23 22 30 20 18 12 12 15 16 16 15
7 3 2 8 16 18 20 21 25 17 13 4 19 10 15 13 9 7 8 1 3 9 11 7 6 4 3 3 3 8 14 24 18 14 23 18 21 5 4 15 16 16 18 19 17
Wind_Direction
350 357 2 3 360 359 357 356 356 352 353 357 3 5 5 32 51 66 45 341 327 338 345 327 33 53 60 77 44 261 209 166 134 179 116 25 348 51 351 321 44 18 17 323 325
332 344 355 359 0 359 356 353 352 351 351 351 356 359 358 55 75 57 9 346 337 340 7 28 60 30 66 47 26 11 241 94 75 76 37 14 335 336 303 340 328 336 333 335 334
312 325 341 352 357 359 356 353 353 351 348 352 353 351 347 147 213 36 359 356 355 351 81 96 40 54 76 23 15 35 72 126 134 53 349 7 286 358 320 314 5 328 324 330 331
294 308 321 340 350 355 354 350 349 349 350 352 353 349 337 165 261 352 357 359 4 23 96 98 77 76 65 81 36 110 89 90 116 94 151 351 326 85 46 6 323 311 321 321 326
290 293 301 321 336 345 350 348 347 347 349 353 353 352 89 154 75 349 1 10 21 54 63 66 96 121 115 111 101 94 135 110 107 129 57 352 33 207 95 355 325 332 320 326 330
289 287 289 305 323 331 339 342 342 341 341 344 353 2 253 218 69 3 18 33 49 56 61 56 103 120 100 76 30 105 131 117 69 60 97 354 110 200 42 342 337 333 335 336 333
270 289 285 298 313 318 325 333 332 331 329 335 350 28 65 93 45 26 38 46 46 67 85 66 113 159 136 119 115 120 134 144 164 2 211 324 203 212 341 329 339 347 342 339 345
267 276 292 301 312 312 318 326 323 317 316 323 334 52 94 137 83 37 34 40 53 82 87 91 93 89 40 117 99 133 172 217 159 320 148 306 302 159 347 330 349 355 350 349 348
262 263 284 294 309 311 317 323 315 294 300 316 349 266 132 164 172 43 49 72 58 51 76 94 67 77 133 147 141 159 233 222 216 144 314 308 307 171 324 337 358 0 2 356 352
260 259 269 286 299 309 318 322 307 310 115 94 93 176 184 175 143 119 81 76 100 132 149 67 81 128 129 196 239 183 203 230 271 144 261 290 264 245 305 343 346 359 0 8 7
247 257 269 281 292 307 326 32 195 169 86 299 83 64 134 136 121 91 79 123 136 144 201 48 213 171 128 93 75 111 144 252 259 324 310 253 273 299 224 274 340 342 336 342 351
231 245 257 279 283 306 314 56 85 19 295 28 141 115 114 179 142 166 132 186 203 181 169 175 196 140 128 127 119 134 163 256 277 243 295 288 283 275 217 264 282 306 311 325 327
219 220 239 263 286 296 312 126 108 60 262 115 200 169 155 172 196 161 223 146 172 164 202 227 114 147 153 157 179 186 203 200 292 325 250 306 263 206 222 250 267 273 289 312 332
216 207 209 217 245 234 218 165 116 81 339 173 192 137 127 161 171 14 25 305 141 174 156 117 137 169 167 197 203 240 189 176 313 331 300 349 294 232 226 256 260 275 301 324 338
214 204 199 194 154 162 184 155 120 116 310 79 142 116 153 188 130 116 32 161 188 148 198 120 166 170 196 219 188 81 150 166 347 285 303 172 256 192 213 255 238 242 283 319 334
211 198 191 178 176 146 139 113 74 56 248 148 128 178 156 141 153 122 123 66 78 117 47 95 24 224 75 102 73 132 140 94 88 267 251 117 319 238 198 201 191 217 266 307 335
210 199 191 176 181 157 134 359 51 207 126 182 187 182 200 154 163 192 176 178 180 155 193 162 188 156 189 149 136 196 210 305 256 221 280 149 247 269 224 213 207 218 257 298 323
208 193 184 176 162 151 132 71 173 236 205 123 127 125 205 164 169 175 174 222 225 210 155 192 214 185 169 244 236 192 244 236 273 275 329 142 235 255 238 220 217 235 259 277 302
180 163 169 166 162 153 92 150 203 200 152 156 123 161 215 200 188 180 214 234 209 193 208 170 165 106 57 136 276 159 205 50 107 82 278 216 249 246 201 210 221 226 245 250 273
157 150 172 158 160 152 64 232 237 210 128 174 181 181 188 188 177 196 191 207 201 194 189 179 132 221 133 143 73 268 141 134 209 241 256 228 266 246 209 217 214 223 231 232 236
149 139 169 154 153 118 203 221 225 211 163 168 189 143 198 176 197 195 206 219 192 161 152 156 206 142 174 206 185 160 208 191 299 244 259 292 243 199 195 197 199 208 217 218 203
140 154 166 149 144 191 191 187 195 180 158 148 127 125 180 164 194 220 226 234 172 154 172 179 130 179 185 101 313 253 233 191 224 195 243 323 270 171 202 201 200 193 198 203 198
154 98 171 172 187 201 171 169 214 152 184 170 196 198 169 149 228 212 204 14 179 172 157 182 205 145 188 182 186 219 199 204 119 116 208 186 251 166 214 215 203 194 189 191 191
131 132 150 229 203 206 182 188 183 228 196 169 167 128 128 148 144 272 214 29 234 196 136 151 189 232 214 95 123 201 199 199 197 193 196 232 259 216 218 211 196 199 191 193 186
200 191 204 193 217 187 186 169 188 186 214 191 193 204 170 158 162 188 153 86 352 214 104 217 235 216 247 203 194 223 208 199 210 214 216 246 237 241 215 209 203 198 186 192 191
244 177 200 253 195 189 190 200 195 174 159 198 217 192 194 195 186 176 137 193 199 169 178 190 242 169 277 240 232 256 236 226 226 233 247 259 278 264 242 226 197 193 186 196 200
236 252 209 187 186 184 206 197 199 177 211 226 205 171 204 214 145 113 107 304 205 176 183 166 159 173 251 340 303 271 224 211 216 219 224 234 241 217 187 213 214 199 194 197 199